F5OWB Weather Reports


time (UTC)temp
C
wind
direction
speed
KPH
gust
KPH
rain 1hr
cm
rain 24hr
cm
rain mn
cm
humidity
%
barometer
mb
20260507104521 15 117 1.6 14.5 0.00 0.08 0.05 71 1018.5
20260507104421 15 96 1.6 14.5 0.00 0.08 0.05 71 1018.5
20260507104315 15 71 1.6 14.5 0.00 0.08 0.05 73 1018.5
20260507104212 15 135 1.6 14.5 0.00 0.08 0.05 70 1018.5
20260507104113 15 92 3.2 14.5 0.00 0.08 0.05 71 1018.5
20260507104013 15 107 3.2 12.9 0.00 0.08 0.05 72 1018.5
20260507103916 15 74 3.2 12.9 0.00 0.08 0.05 72 1018.5
20260507103807 15 114 3.2 12.9 0.00 0.08 0.05 72 1018.3
20260507103704 15 114 1.6 12.9 0.00 0.08 0.05 73 1018.5
20260507103605 16 94 1.6 12.9 0.00 0.08 0.05 74 1018.3
20260507103505 15 126 1.6 9.7 0.00 0.08 0.05 74 1018.3
20260507103403 15 131 1.6 9.7 0.00 0.08 0.05 72 1018.5
20260507103302 15 109 1.6 9.7 0.00 0.08 0.05 72 1018.5
20260507103203 15 88 0.0 9.7 0.00 0.08 0.05 71 1018.5
20260507103105 15 105 0.0 9.7 0.00 0.08 0.05 72 1018.5
20260507103002 15 129 0.0 6.4 0.00 0.08 0.05 71 1018.5
20260507102903 16 111 0.0 6.4 0.00 0.08 0.05 70 1018.5
20260507102757 16 136 0.0 6.4 0.00 0.08 0.05 71 1018.5
20260507102657 16 131 0.0 6.4 0.00 0.08 0.05 70 1018.5
20260507102554 16 80 0.0 3.2 0.00 0.08 0.05 71 1018.3
20260507102454 16 69 0.0 3.2 0.00 0.08 0.05 73 1018.3
20260507102354 16 109 0.0 3.2 0.00 0.08 0.05 71 1018.3
20260507102258 16 74 0.0 9.7 0.00 0.08 0.05 73 1018.5
20260507102155 15 80 1.6 11.3 0.00 0.08 0.05 73 1018.5
20260507102053 15 128 1.6 14.5 0.00 0.08 0.05 71 1018.5
20260507101948 15 128 3.2 16.1 0.00 0.08 0.05 72 1018.5
20260507101852 15 103 3.2 16.1 0.00 0.08 0.05 74 1018.5
20260507101748 15 133 3.2 16.1 0.00 0.08 0.05 72 1018.3
20260507101647 15 78 3.2 16.1 0.00 0.08 0.05 72 1018.5
20260507101547 15 137 3.2 16.1 0.00 0.08 0.05 75 1018.3
20260507101448 15 128 3.2 16.1 0.00 0.00 0.00
20260507101445 15 128 3.2 16.1 0.00 0.08 0.05 71 1018.3
20260507101345 15 146 3.2 16.1 0.00 0.08 0.05 72 1018.5
20260507101236 15 103 3.2 16.1 0.00 0.08 0.05 71 1018.3
20260507101137 15 140 3.2 16.1 0.00 0.08 0.05 72 1018.5
20260507101037 15 148 1.6 16.1 0.00 0.08 0.05 71 1018.5
20260507100937 15 136 1.6 14.5 0.00 0.08 0.05 73 1018.3
20260507100835 15 71 0.0 9.7 0.00 0.08 0.05 72 1018.3
20260507100730 15 106 0.0 8.0 0.00 0.08 0.05 72 1018.5
20260507100630 15 82 0.0 8.0 0.00 0.08 0.05 72 1018.5
20260507100532 15 153 0.0 8.0 0.00 0.08 0.05 72 1018.5
20260507100432 15 161 0.0 8.0 0.00 0.08 0.05 71 1018.5
20260507100331 15 91 0.0 11.3 0.00 0.08 0.05 70 1018.6
20260507100229 15 168 0.0 11.3 0.00 0.08 0.05 72 1018.6
20260507100123 15 136 0.0 11.3 0.00 0.08 0.05 74 1018.6
20260507100026 15 138 0.0 11.3 0.00 0.08 0.05 75 1018.6
20260507095923 15 99 0.0 11.3 0.00 0.08 0.05 73 1018.5
20260507095829 15 156 0.0 11.3 0.00 0.08 0.05 72 1018.5
20260507095717 15 156 0.0 11.3 0.00 0.08 0.05 72 1018.5
20260507095623 15 181 0.0 11.3 0.00 0.08 0.05 72 1018.6
20260507095517 15 136 1.6 11.3 0.00 0.08 0.05 73 1018.6
20260507095415 15 99 0.0 8.0 0.00 0.08 0.05 73 1018.6
20260507095315 15 164 1.6 8.0 0.00 0.08 0.05 73 1018.6
20260507095215 15 175 1.6 12.9 0.00 0.08 0.05 72 1018.6
20260507095116 15 159 1.6 12.9 0.00 0.08 0.05 73 1018.6
20260507095012 15 147 1.6 12.9 0.00 0.08 0.05 73 1018.6
20260507094909 15 146 1.6 12.9 0.00 0.08 0.05 74 1018.6
20260507094810 15 130 1.6 12.9 0.00 0.08 0.05 75 1018.6
20260507094709 15 130 1.6 12.9 0.00 0.08 0.05 74 1018.6
20260507094615 15 134 1.6 12.9 0.00 0.08 0.05 75 1018.6
20260507094507 15 120 1.6 12.9 0.00 0.08 0.05 74 1018.5
20260507094409 15 147 1.6 12.9 0.00 0.08 0.05 73 1018.5
20260507094307 15 134 0.0 12.9 0.00 0.08 0.05 74 1018.6
20260507094207 15 138 0.0 9.7 0.00 0.08 0.05 74 1018.5
20260507094103 15 133 0.0 8.0 0.00 0.08 0.05 74 1018.6
20260507094003 15 142 0.0 6.4 0.00 0.08 0.05 72 1018.6
20260507093904 15 144 0.0 6.4 0.00 0.08 0.05 72 1018.6
20260507093802 15 109 0.0 6.4 0.00 0.08 0.05 72 1018.6
20260507093701 15 109 0.0 6.4 0.00 0.08 0.05 72 1018.5
20260507093602 15 140 0.0 6.4 0.00 0.08 0.05 72 1018.6
20260507093501 15 106 0.0 6.4 0.00 0.08 0.05 71 1018.6
20260507093403 15 107 0.0 6.4 0.00 0.08 0.05 73 1018.6
20260507093301 15 140 0.0 6.4 0.00 0.08 0.05 73 1018.6
20260507093202 15 159 0.0 6.4 0.00 0.08 0.05 72 1018.6
20260507093107 15 134 0.0 6.4 0.00 0.08 0.05 72 1018.6
20260507093001 15 114 1.6 9.7 0.00 0.08 0.05 71 1018.6
20260507092900 15 99 1.6 9.7 0.00 0.08 0.05 71 1018.6
20260507092801 15 106 1.6 9.7 0.00 0.08 0.05 71 1018.6
20260507092701 15 107 1.6 11.3 0.00 0.08 0.05 70 1018.6
20260507092607 15 116 1.6 11.3 0.00 0.08 0.05 70 1018.6
20260507092502 15 97 1.6 11.3 0.00 0.08 0.05 70 1018.6
20260507092356 15 98 1.6 11.3 0.00 0.08 0.05 70 1018.6
20260507092259 15 138 1.6 11.3 0.00 0.08 0.05 70 1018.6
20260507092155 15 110 1.6 11.3 0.00 0.08 0.05 71 1018.6
20260507092101 15 117 1.6 11.3 0.00 0.08 0.05 72 1018.6
20260507091949 15 92 1.6 11.3 0.00 0.08 0.05 71 1018.6
20260507091848 15 127 1.6 11.3 0.00 0.08 0.05 70 1018.6
20260507091749 15 142 1.6 9.7 0.00 0.08 0.05 71 1018.5
20260507091647 15 115 1.6 9.7 0.00 0.08 0.05 73 1018.6
20260507091545 15 144 1.6 6.4 0.00 0.08 0.05 71 1018.6
20260507091438 15 32 1.6 6.4 0.00 0.08 0.05 71 1018.6
20260507091338 15 19 1.6 6.4 0.00 0.08 0.05 71 1018.6
20260507091236 15 92 1.6 6.4 0.00 0.08 0.05 70 1018.6
20260507091135 15 80 1.6 6.4 0.00 0.08 0.05 70 1018.6
20260507091037 15 167 1.6 6.4 0.00 0.08 0.05 70 1018.6
20260507090932 15 106 1.6 4.8 0.00 0.08 0.05 71 1018.6
20260507090836 15 111 1.6 4.8 0.00 0.08 0.05 71 1018.6
20260507090733 15 155 1.6 4.8 0.00 0.08 0.05 70 1018.6
20260507090635 15 155 1.6 4.8 0.00 0.08 0.05 70 1018.6
20260507090531 15 155 1.6 6.4 0.00 0.08 0.05 71 1018.6
20260507090431 15 165 1.6 6.4 0.00 0.08 0.05 72 1018.6
20260507090330 15 148 1.6 6.4 0.00 0.08 0.05 72 1018.6
20260507090231 15 109 0.0 6.4 0.00 0.08 0.05 72 1018.6
20260507090130 15 111 0.0 6.4 0.00 0.08 0.05 71 1018.6
20260507090032 15 46 0.0 6.4 0.00 0.08 0.05 70 1018.6
20260507085930 15 46 0.0 6.4 0.00 0.08 0.05 70 1018.6
20260507085830 15 46 0.0 6.4 0.00 0.08 0.05 72 1018.6
20260507085729 15 83 0.0 6.4 0.00 0.08 0.05 71 1018.6
20260507085631 15 86 0.0 6.4 0.00 0.08 0.05 71 1018.6
20260507085529 15 28 0.0 6.4 0.00 0.08 0.05 70 1018.6
20260507085431 15 40 0.0 6.4 0.00 0.08 0.05 70 1018.6
20260507085327 15 111 0.0 6.4 0.00 0.08 0.05 70 1018.6
20260507085227 15 89 0.0 6.4 0.00 0.08 0.05 72 1018.6
20260507085127 15 96 0.0 6.4 0.00 0.08 0.05 71 1018.6
20260507085024 15 119 0.0 6.4 0.00 0.08 0.05 72 1018.6
20260507084919 15 90 0.0 6.4 0.00 0.08 0.05 70 1018.5
20260507084815 15 67 0.0 6.4 0.00 0.08 0.05 72 1018.6
20260507084713 15 59 0.0 6.4 0.00 0.08 0.05 71 1018.6
20260507084611 15 86 0.0 4.8 0.00 0.08 0.05 72 1018.5
20260507084511 15 109 0.0 0.0 0.00 0.08 0.05 72 1018.5
20260507084411 15 109 0.0 8.0 0.00 0.08 0.05 71 1018.6
20260507084311 15 109 1.6 11.3 0.00 0.08 0.05 71 1018.5
20260507084211 15 109 1.6 11.3 0.00 0.08 0.05 71 1018.5
20260507084109 15 109 1.6 11.3 0.00 0.08 0.05 70 1018.5
20260507084009 15 103 1.6 11.3 0.00 0.08 0.05 71 1018.5
20260507083908 15 109 1.6 11.3 0.00 0.08 0.05 71 1018.5
20260507083809 15 150 1.6 11.3 0.00 0.08 0.05 72 1018.6
20260507083711 15 153 1.6 11.3 0.00 0.08 0.05 72 1018.6
20260507083610 15 150 1.6 11.3 0.00 0.08 0.05 71 1018.5
20260507083507 15 152 1.6 11.3 0.00 0.08 0.05 72 1018.5
20260507083407 15 142 0.0 11.3 0.00 0.08 0.05 73 1018.5
20260507083307 15 103 0.0 6.4 0.00 0.08 0.05 71 1018.6
20260507083204 15 59 0.0 6.4 0.00 0.08 0.05 70 1018.6
20260507083104 15 59 0.0 6.4 0.00 0.08 0.05 70 1018.6
20260507083003 15 59 0.0 4.8 0.00 0.08 0.05 70 1018.6
20260507082901 14 123 0.0 4.8 0.00 0.08 0.05 71 1018.6
20260507082802 14 123 0.0 1.6 0.00 0.08 0.05 73 1018.6
20260507082658 14 123 0.0 1.6 0.00 0.08 0.05 71 1018.6
20260507082557 14 122 0.0 0.0 0.00 0.08 0.05 71 1018.6
20260507082457 14 122 0.0 0.0 0.00 0.08 0.05 71 1018.6
20260507082354 14 86 0.0 0.0 0.00 0.08 0.05 71 1018.6
20260507082254 14 86 0.0 0.0 0.00 0.08 0.05 71 1018.6
20260507082155 14 86 0.0 0.0 0.00 0.08 0.05 71 1018.6
20260507082055 14 86 0.0 0.0 0.00 0.08 0.05 71 1018.6
20260507081954 14 86 0.0 0.0 0.00 0.08 0.05 72 1018.6
20260507081855 14 86 0.0 0.0 0.00 0.08 0.05 73 1018.6
20260507081752 14 81 0.0 0.0 0.00 0.08 0.05 72 1018.6
20260507081653 14 61 0.0 0.0 0.00 0.08 0.05 73 1018.6
20260507081551 14 96 0.0 0.0 0.00 0.08 0.05 73 1018.6
20260507081449 14 128 0.0 0.0 0.00 0.08 0.05 74 1018.6
20260507081348 15 115 0.0 0.0 0.00 0.08 0.05 72 1018.6
20260507081250 15 109 0.0 0.0 0.00 0.08 0.05 73 1018.6
20260507081148 15 145 0.0 0.0 0.00 0.08 0.05 71 1018.6
20260507081049 15 140 0.0 0.0 0.00 0.08 0.05 70 1018.6
20260507080949 14 140 0.0 0.0 0.00 0.08 0.05 70 1018.6
20260507080847 14 141 0.0 0.0 0.00 0.08 0.05 71 1018.7
20260507080747 14 123 0.0 0.0 0.00 0.08 0.05 71 1018.6
20260507080645 14 171 0.0 0.0 0.00 0.08 0.05 72 1018.7
20260507080545 14 171 0.0 0.0 0.00 0.08 0.05 73 1018.6
20260507080445 14 171 0.0 0.0 0.00 0.08 0.05 73 1018.6
20260507080344 14 126 0.0 0.0 0.00 0.08 0.05 72 1018.6
20260507080244 14 126 0.0 0.0 0.00 0.08 0.05 72 1018.6
20260507080144 14 92 0.0 0.0 0.00 0.08 0.05 71 1018.6
20260507080045 14 92 0.0 0.0 0.00 0.08 0.05 73 1018.6
20260507075944 14 142 0.0 0.0 0.00 0.08 0.05 73 1018.6
20260507075847 14 115 0.0 0.0 0.00 0.08 0.05 73 1018.7
20260507075744 14 115 0.0 0.0 0.00 0.08 0.05 73 1018.7
20260507075644 14 115 0.0 0.0 0.00 0.08 0.05 73 1018.6
20260507075544 13 115 0.0 0.0 0.00 0.08 0.05 73 1018.6
20260507075447 13 117 0.0 0.0 0.00 0.08 0.05 73 1018.7
20260507075340 13 94 0.0 0.0 0.00 0.08 0.05 73 1018.7
20260507075240 13 94 0.0 0.0 0.00 0.08 0.05 74 1018.7
20260507075143 13 94 0.0 9.7 0.00 0.08 0.05 75 1018.7
20260507075043 13 109 0.0 9.7 0.00 0.08 0.05 75 1018.7
20260507074943 13 111 1.6 9.7 0.00 0.08 0.05 75 1018.7
20260507074843 13 90 1.6 9.7 0.00 0.08 0.05 74 1018.7
20260507074740 13 94 1.6 9.7 0.00 0.08 0.05 74 1018.7
20260507074642 13 94 1.6 9.7 0.00 0.08 0.05 75 1018.7
20260507074544 13 96 1.6 9.7 0.00 0.08 0.05 74 1018.7
20260507074439 13 110 1.6 9.7 0.00 0.08 0.05 75 1018.7
20260507074343 13 103 1.6 9.7 0.00 0.08 0.05 76 1018.7
20260507074239 13 100 1.6 9.7 0.00 0.08 0.05 75 1018.6
20260507074136 13 171 0.0 8.0 0.00 0.08 0.05 76 1018.7
20260507074033 13 138 0.0 8.0 0.00 0.08 0.05 76 1018.7
20260507073933 13 138 0.0 8.0 0.00 0.08 0.05 76 1018.6
20260507073835 13 55 0.0 0.0 0.00 0.08 0.05 75 1018.7
20260507073733 13 88 0.0 0.0 0.00 0.08 0.05 75 1018.6
20260507073634 13 88 0.0 0.0 0.00 0.08 0.05 75 1018.7
20260507073534 13 88 0.0 0.0 0.00 0.08 0.05 76 1018.7
20260507073435 13 88 0.0 1.6 0.00 0.08 0.05 76 1018.7
20260507073331 13 84 0.0 1.6 0.00 0.08 0.05 77 1018.7
20260507073229 13 108 0.0 1.6 0.00 0.08 0.05 77 1018.7
20260507073132 13 92 0.0 1.6 0.00 0.08 0.05 77 1018.7
20260507073032 13 140 0.0 1.6 0.00 0.08 0.05 77 1018.7
20260507072931 13 140 0.0 1.6 0.00 0.08 0.05 76 1018.7
20260507072828 13 140 0.0 1.6 0.00 0.08 0.05 77 1018.7
20260507072727 13 140 0.0 3.2 0.00 0.08 0.05 77 1018.7
20260507072628 13 140 0.0 4.8 0.00 0.08 0.05 77 1018.7
20260507072529 13 140 0.0 6.4 0.00 0.08 0.05 77 1018.7
20260507072427 13 117 0.0 6.4 0.00 0.08 0.05 76 1018.7
20260507072327 13 128 0.0 6.4 0.00 0.08 0.05 76 1018.7
20260507072223 13 124 0.0 6.4 0.00 0.08 0.05 76 1018.7
20260507072124 13 119 0.0 6.4 0.00 0.08 0.05 77 1018.7
20260507072027 13 144 0.0 6.4 0.00 0.08 0.05 77 1018.6
20260507071925 13 161 0.0 6.4 0.00 0.08 0.05 77 1018.7
20260507071824 13 160 0.0 6.4 0.00 0.08 0.05 77 1018.7
20260507071724 13 138 0.0 6.4 0.00 0.08 0.05 78 1018.6
20260507071624 13 138 0.0 6.4 0.00 0.08 0.05 77 1018.7
20260507071524 13 142 0.0 6.4 0.00 0.08 0.05 78 1018.7
20260507071424 13 144 0.0 6.4 0.00 0.08 0.05 78 1018.7
20260507071325 13 134 0.0 0.0 0.00 0.08 0.05 78 1018.7
20260507071225 13 131 0.0 0.0 0.00 0.08 0.05 78 1018.7
20260507071124 13 155 0.0 0.0 0.00 0.08 0.05 77 1018.7
20260507071025 13 156 0.0 0.0 0.00 0.08 0.05 77 1018.6
20260507070927 13 156 0.0 0.0 0.00 0.08 0.05 76 1018.6
20260507070824 13 156 0.0 0.0 0.00 0.08 0.05 77 1018.6
20260507070725 13 156 0.0 0.0 0.00 0.08 0.05 78 1018.6
20260507070626 13 157 0.0 0.0 0.00 0.08 0.05 78 1018.6
20260507070527 13 160 0.0 0.0 0.00 0.08 0.05 79 1018.6
20260507070424 13 129 0.0 0.0 0.00 0.08 0.05 79 1018.6
20260507070320 13 129 0.0 3.2 0.00 0.08 0.05 79 1018.7
20260507070222 12 114 0.0 3.2 0.00 0.08 0.05 79 1018.6
20260507070120 12 114 0.0 3.2 0.00 0.08 0.05 78 1018.6
20260507070022 12 114 0.0 3.2 0.00 0.08 0.05 78 1018.6
20260507065919 12 114 0.0 3.2 0.00 0.08 0.05 78 1018.6
20260507065813 12 114 0.0 3.2 0.00 0.08 0.05 80 1018.6
20260507065713 12 111 0.0 3.2 0.00 0.08 0.05 79 1018.6
20260507065614 12 111 0.0 3.2 0.00 0.08 0.05 80 1018.6
20260507065512 12 111 0.0 3.2 0.00 0.08 0.05 80 1018.6
20260507065412 12 111 0.0 3.2 0.00 0.08 0.05 80 1018.6
20260507065313 12 108 0.0 3.2 0.00 0.08 0.05 80 1018.6
20260507065213 12 108 0.0 3.2 0.00 0.08 0.05 80 1018.6
20260507065112 12 108 0.0 3.2 0.00 0.08 0.05 79 1018.5
20260507065014 12 108 0.0 3.2 0.00 0.08 0.05 80 1018.5
20260507064913 12 108 0.0 3.2 0.00 0.08 0.05 80 1018.5
20260507064810 12 92 0.0 3.2 0.00 0.08 0.05 80 1018.5
20260507064711 12 65 0.0 0.0 0.00 0.08 0.05 81 1018.5
20260507064604 12 84 0.0 0.0 0.00 0.08 0.05 81 1018.5
20260507064504 12 26 0.0 0.0 0.00 0.08 0.05 81 1018.5
20260507064404 12 100 0.0 0.0 0.00 0.08 0.05 82 1018.5
20260507064308 12 99 0.0 0.0 0.00 0.08 0.05 82 1018.5
20260507064205 12 99 0.0 0.0 0.00 0.08 0.05 82 1018.5
20260507064106 12 99 0.0 0.0 0.00 0.08 0.05 82 1018.5
20260507064005 12 99 0.0 0.0 0.00 0.08 0.05 83 1018.5
20260507063904 12 97 0.0 0.0 0.00 0.08 0.05 83 1018.5
20260507063806 11 96 0.0 0.0 0.00 0.08 0.05 82 1018.5
20260507063704 11 96 0.0 0.0 0.00 0.08 0.05 83 1018.3
20260507063606 11 96 0.0 0.0 0.00 0.08 0.05 83 1018.5
20260507063504 11 120 0.0 0.0 0.00 0.08 0.05 83 1018.5
20260507063407 11 120 0.0 0.0 0.00 0.08 0.05 83 1018.5
20260507063303 11 136 0.0 0.0 0.00 0.08 0.05 83 1018.3
20260507063201 11 136 0.0 0.0 0.00 0.08 0.05 83 1018.3
20260507063102 11 136 0.0 0.0 0.00 0.08 0.05 83 1018.5
20260507063001 11 136 0.0 0.0 0.00 0.08 0.05 84 1018.5
20260507062902 11 136 0.0 0.0 0.00 0.08 0.05 84 1018.3
20260507062804 11 136 0.0 0.0 0.00 0.08 0.05 85 1018.5
20260507062700 11 136 0.0 0.0 0.00 0.08 0.05 85 1018.5
20260507062600 11 136 0.0 0.0 0.00 0.08 0.05 85 1018.5
20260507062501 11 136 0.0 0.0 0.00 0.08 0.05 86 1018.5
20260507062403 11 136 0.0 0.0 0.00 0.08 0.05 86 1018.3
20260507062300 11 136 0.0 0.0 0.00 0.08 0.05 87 1018.5
20260507062200 11 136 0.0 0.0 0.00 0.08 0.05 86 1018.3
20260507062100 11 136 0.0 0.0 0.00 0.08 0.05 86 1018.5
20260507062002 11 136 0.0 0.0 0.00 0.08 0.05 86 1018.3
20260507061900 11 136 0.0 0.0 0.00 0.08 0.05 86 1018.3
20260507061803 10 136 0.0 0.0 0.00 0.08 0.05 86 1018.3
20260507061700 10 136 0.0 0.0 0.00 0.08 0.05 86 1018.3
20260507061559 10 136 0.0 0.0 0.00 0.08 0.05 86 1018.3
20260507061452 10 136 0.0 0.0 0.00 0.08 0.05 87 1018.3
20260507061351 10 136 0.0 0.0 0.00 0.08 0.05 88 1018.3
20260507061254 10 136 0.0 0.0 0.00 0.08 0.05 88 1018.3
20260507061153 10 169 0.0 0.0 0.00 0.08 0.05 88 1018.3
20260507061052 10 169 0.0 0.0 0.00 0.08 0.05 88 1018.2
20260507060952 10 169 0.0 0.0 0.00 0.08 0.05 88 1018.3
20260507060854 10 169 0.0 0.0 0.00 0.08 0.05 89 1018.3
20260507060754 10 169 0.0 0.0 0.00 0.08 0.05 89 1018.3
20260507060652 10 190 0.0 0.0 0.00 0.08 0.05 89 1018.3
20260507060553 10 224 0.0 0.0 0.00 0.08 0.05 89 1018.3
20260507060452 10 224 0.0 0.0 0.00 0.08 0.05 90 1018.3
20260507060351 10 224 0.0 0.0 0.00 0.08 0.05 90 1018.2
20260507060244 10 224 0.0 0.0 0.00 0.08 0.05 90 1018.2
20260507060146 10 224 0.0 0.0 0.00 0.08 0.05 90 1018.2
20260507060044 10 224 0.0 0.0 0.00 0.08 0.05 90 1018.3
20260507055943 10 224 0.0 0.0 0.00 0.08 0.05 90 1018.3
20260507055844 10 224 0.0 0.0 0.00 0.08 0.05 90 1018.3
20260507055745 10 224 0.0 0.0 0.00 0.08 0.05 91 1018.3
20260507055644 10 224 0.0 0.0 0.00 0.08 0.05 91 1018.2
20260507055547 10 224 0.0 0.0 0.00 0.08 0.05 91 1018.3
20260507055446 10 224 0.0 0.0 0.00 0.08 0.05 91 1018.2
20260507055344 10 224 0.0 0.0 0.00 0.08 0.05 91 1018.3
20260507055244 10 224 0.0 0.0 0.00 0.08 0.05 91 1018.3
20260507055144 10 224 0.0 0.0 0.00 0.08 0.05 91 1018.2
20260507055043 9 224 0.0 0.0 0.00 0.08 0.05 92 1018.2
20260507054944 9 224 0.0 0.0 0.00 0.08 0.05 92 1018.2
20260507054844 9 224 0.0 0.0 0.00 0.08 0.05 92 1018.3
20260507054744 9 224 0.0 0.0 0.00 0.08 0.05 92 1018.2
20260507054645 9 224 0.0 0.0 0.00 0.08 0.05 92 1018.2
20260507054544 9 224 0.0 0.0 0.00 0.08 0.05 92 1018.2
20260507054444 9 224 0.0 0.0 0.00 0.08 0.05 92 1018.2
20260507054347 9 224 0.0 0.0 0.00 0.08 0.05 92 1018.2
20260507054248 9 224 0.0 0.0 0.00 0.08 0.05 92 1018.2
20260507054145 9 224 0.0 0.0 0.00 0.08 0.05 92 1018.2
20260507054044 9 224 0.0 0.0 0.00 0.08 0.05 92 1018.2
20260507053946 9 224 0.0 0.0 0.00 0.08 0.05 92 1018.2
20260507053844 9 224 0.0 0.0 0.00 0.08 0.05 92 1018.2
20260507053747 9 224 0.0 0.0 0.00 0.08 0.05 92 1018.2
20260507053640 9 224 0.0 0.0 0.00 0.08 0.05 92 1018.1
20260507053540 9 224 0.0 0.0 0.00 0.08 0.05 92 1018.1
20260507053442 9 224 0.0 0.0 0.00 0.08 0.05 92 1018.1
20260507053341 9 224 0.0 0.0 0.00 0.08 0.05 92 1018.1
20260507053243 8 224 0.0 0.0 0.00 0.08 0.05 92 1018.1
20260507053143 8 224 0.0 0.0 0.00 0.08 0.05 92 1018.1
20260507053040 8 224 0.0 0.0 0.00 0.08 0.05 92 1018.1
20260507052943 8 224 0.0 0.0 0.00 0.08 0.05 92 1018.1
20260507052841 8 224 0.0 0.0 0.00 0.08 0.05 92 1018.1
20260507052740 8 224 0.0 0.0 0.00 0.08 0.05 92 1018.1
20260507052643 8 224 0.0 0.0 0.00 0.08 0.05 92 1018.1
20260507052539 8 224 0.0 0.0 0.00 0.08 0.05 92 1018.1
20260507052432 8 224 0.0 0.0 0.00 0.08 0.05 92 1018.1
20260507052332 8 224 0.0 0.0 0.00 0.08 0.05 92 1018.1
20260507052234 8 224 0.0 0.0 0.00 0.08 0.05 92 1018.1
20260507052134 8 224 0.0 0.0 0.00 0.08 0.05 92 1018.0
20260507052032 8 224 0.0 0.0 0.00 0.08 0.05 92 1018.1
20260507051932 8 224 0.0 0.0 0.00 0.08 0.05 92 1018.1
20260507051830 8 224 0.0 0.0 0.00 0.08 0.05 92 1018.1
20260507051730 8 224 0.0 0.0 0.00 0.08 0.05 92 1018.1
20260507051630 8 224 0.0 0.0 0.00 0.08 0.05 92 1018.1
20260507051533 8 224 0.0 0.0 0.00 0.08 0.05 92 1018.1
20260507051433 8 224 0.0 0.0 0.00 0.08 0.05 92 1018.1
20260507051330 8 224 0.0 0.0 0.00 0.08 0.05 92 1018.1
20260507051230 8 224 0.0 0.0 0.00 0.08 0.05 92 1018.2
20260507051128 8 224 0.0 0.0 0.00 0.08 0.05 92 1018.1
20260507051029 8 224 0.0 0.0 0.00 0.08 0.05 92 1018.1
20260507050926 8 224 0.0 0.0 0.00 0.08 0.05 92 1018.1
20260507050826 8 224 0.0 0.0 0.00 0.08 0.05 92 1018.1
20260507050725 8 224 0.0 0.0 0.00 0.08 0.05 92 1018.1
20260507050624 8 224 0.0 0.0 0.00 0.08 0.05 92 1018.0
20260507050524 8 224 0.0 0.0 0.00 0.08 0.05 92 1018.0
20260507050422 8 224 0.0 0.0 0.00 0.08 0.05 92 1018.0
20260507050322 8 224 0.0 0.0 0.00 0.08 0.05 92 1018.0
20260507050223 8 224 0.0 0.0 0.00 0.08 0.05 92 1018.0
20260507050118 8 224 0.0 0.0 0.00 0.08 0.05 92 1018.0
20260507050017 8 224 0.0 0.0 0.00 0.08 0.05 92 1018.0
20260507045918 8 224 0.0 0.0 0.00 0.08 0.05 92 1018.0
20260507045816 8 224 0.0 0.0 0.00 0.08 0.05 92 1018.0
20260507045710 8 224 0.0 0.0 0.00 0.08 0.05 92 1018.0
20260507045611 8 191 0.0 0.0 0.00 0.08 0.05 92 1018.0
20260507045509 8 191 0.0 0.0 0.00 0.08 0.05 92 1018.0
20260507045408 8 187 0.0 0.0 0.00 0.08 0.05 92 1017.9
20260507045311 8 188 0.0 0.0 0.00 0.08 0.05 92 1017.9
20260507045206 8 188 0.0 0.0 0.00 0.08 0.05 92 1017.9
20260507045105 8 188 0.0 0.0 0.00 0.08 0.05 92 1017.8
20260507045006 8 188 0.0 0.0 0.00 0.08 0.05 92 1017.9
20260507044902 8 187 0.0 0.0 0.00 0.08 0.05 92 1017.8
20260507044804 8 188 0.0 0.0 0.00 0.08 0.05 92 1017.9
20260507044703 8 187 0.0 0.0 0.00 0.08 0.05 92 1017.8
20260507044602 8 188 0.0 0.0 0.00 0.08 0.05 92 1017.8
20260507044501 8 187 0.0 0.0 0.00 0.08 0.05 92 1017.8
20260507044358 8 188 0.0 0.0 0.00 0.08 0.05 92 1017.8
20260507044259 8 187 0.0 0.0 0.00 0.08 0.05 92 1017.8
20260507044155 8 187 0.0 0.0 0.00 0.08 0.05 92 1017.8
20260507044057 8 188 0.0 0.0 0.00 0.08 0.05 92 1017.8
20260507043950 8 187 0.0 0.0 0.00 0.08 0.05 92 1017.8
20260507043850 8 187 0.0 0.0 0.00 0.08 0.05 92 1017.8
20260507043753 8 187 0.0 0.0 0.00 0.08 0.05 92 1017.8
20260507043648 8 187 0.0 0.0 0.00 0.08 0.05 92 1017.8
20260507043546 8 187 0.0 0.0 0.00 0.08 0.05 92 1017.8
20260507043447 8 187 0.0 0.0 0.00 0.08 0.05 92 1017.7
20260507043345 8 187 0.0 0.0 0.00 0.08 0.05 92 1017.8
20260507043244 8 187 0.0 0.0 0.00 0.08 0.05 92 1017.7
20260507043138 8 187 0.0 0.0 0.00 0.08 0.05 92 1017.7
20260507043037 8 187 0.0 0.0 0.00 0.08 0.05 92 1017.7
20260507042936 8 188 0.0 0.0 0.00 0.08 0.05 92 1017.7
20260507042836 8 187 0.0 0.0 0.00 0.08 0.05 92 1017.7
20260507042739 8 187 0.0 0.0 0.00 0.08 0.05 92 1017.7
20260507042631 8 187 0.0 0.0 0.00 0.08 0.05 92 1017.7
20260507042533 8 187 0.0 0.0 0.00 0.08 0.05 92 1017.7
20260507042429 8 187 0.0 0.0 0.00 0.08 0.05 92 1017.7
20260507042330 8 186 0.0 0.0 0.00 0.08 0.05 92 1017.6
20260507042230 8 186 0.0 0.0 0.00 0.08 0.05 92 1017.6
20260507042129 8 186 0.0 0.0 0.00 0.08 0.05 92 1017.7
20260507042030 8 186 0.0 0.0 0.00 0.08 0.05 92 1017.6
20260507041930 8 186 0.0 0.0 0.00 0.08 0.05 92 1017.6
20260507041827 8 186 0.0 0.0 0.00 0.08 0.05 92 1017.6
20260507041727 8 186 0.0 0.0 0.00 0.08 0.05 92 1017.6
20260507041624 8 186 0.0 0.0 0.00 0.08 0.05 92 1017.6
20260507041524 8 186 0.0 0.0 0.00 0.08 0.05 92 1017.6
20260507041425 8 186 0.0 0.0 0.00 0.08 0.05 92 1017.6
20260507041321 8 186 0.0 0.0 0.00 0.08 0.05 92 1017.6
20260507041218 8 186 0.0 0.0 0.00 0.08 0.05 92 1017.6
20260507041112 8 186 0.0 0.0 0.00 0.08 0.05 92 1017.6
20260507041007 8 186 0.0 0.0 0.00 0.08 0.05 92 1017.6
20260507040907 8 186 0.0 0.0 0.00 0.08 0.05 92 1017.6
20260507040802 8 186 0.0 0.0 0.00 0.08 0.05 92 1017.6
20260507040701 8 186 0.0 0.0 0.00 0.08 0.05 92 1017.6
20260507040600 8 186 0.0 0.0 0.00 0.08 0.05 92 1017.6
20260507040500 8 186 0.0 0.0 0.00 0.08 0.05 92 1017.6
20260507040354 8 186 0.0 0.0 0.00 0.08 0.05 92 1017.6
20260507040252 8 186 0.0 0.0 0.00 0.08 0.05 92 1017.5
20260507040150 8 186 0.0 0.0 0.00 0.08 0.05 92 1017.5
20260507040054 8 186 0.0 0.0 0.00 0.08 0.05 92 1017.6
20260507035950 8 186 0.0 0.0 0.00 0.08 0.05 92 1017.5
20260507035847 8 186 0.0 0.0 0.00 0.08 0.05 92 1017.5
20260507035749 8 186 0.0 0.0 0.00 0.08 0.05 92 1017.5
20260507035650 8 186 0.0 0.0 0.00 0.08 0.05 92 1017.6
20260507035551 8 186 0.0 0.0 0.00 0.08 0.05 92 1017.6
20260507035447 8 186 0.0 0.0 0.00 0.08 0.05 92 1017.5
20260507035342 8 186 0.0 0.0 0.00 0.08 0.05 92 1017.5
20260507035239 8 186 0.0 0.0 0.00 0.08 0.05 92 1017.5
20260507035138 8 186 0.0 0.0 0.00 0.08 0.05 92 1017.6
20260507035040 8 186 0.0 0.0 0.00 0.08 0.05 92 1017.5
20260507034936 8 186 0.0 0.0 0.00 0.08 0.05 92 1017.5
20260507034837 8 186 0.0 0.0 0.00 0.08 0.05 92 1017.5
20260507034737 8 186 0.0 0.0 0.00 0.08 0.05 92 1017.5
20260507034630 8 186 0.0 0.0 0.00 0.08 0.05 92 1017.6
20260507034533 8 186 0.0 0.0 0.00 0.08 0.05 92 1017.5
20260507034430 8 186 0.0 0.0 0.00 0.08 0.05 92 1017.6
20260507034327 8 186 0.0 0.0 0.00 0.08 0.05 92 1017.5
20260507034227 8 186 0.0 0.0 0.00 0.08 0.05 92 1017.5
20260507034126 8 186 0.0 0.0 0.00 0.08 0.05 92 1017.6
20260507034026 8 186 0.0 0.0 0.00 0.08 0.05 92 1017.5
20260507033920 8 186 0.0 0.0 0.00 0.08 0.05 92 1017.5
20260507033821 8 186 0.0 0.0 0.00 0.08 0.05 92 1017.5
20260507033721 8 186 0.0 0.0 0.00 0.08 0.05 92 1017.5
20260507033616 8 186 0.0 0.0 0.00 0.08 0.05 92 1017.5
20260507033515 8 186 0.0 0.0 0.00 0.08 0.05 92 1017.5
20260507033414 8 186 0.0 0.0 0.00 0.08 0.05 92 1017.5
20260507033314 8 186 0.0 0.0 0.00 0.08 0.05 92 1017.5
20260507033212 8 186 0.0 0.0 0.00 0.08 0.05 92 1017.5
20260507033112 8 186 0.0 0.0 0.00 0.08 0.05 92 1017.5
20260507033012 8 186 0.0 0.0 0.00 0.08 0.05 92 1017.5
20260507032908 8 186 0.0 0.0 0.00 0.08 0.05 92 1017.5
20260507032811 8 186 0.0 0.0 0.00 0.08 0.05 92 1017.5
20260507032708 8 186 0.0 0.0 0.00 0.08 0.05 92 1017.5
20260507032607 8 155 0.0 0.0 0.00 0.08 0.05 92 1017.5
20260507032505 8 155 0.0 0.0 0.00 0.08 0.05 92 1017.5
20260507032405 8 155 0.0 0.0 0.00 0.08 0.05 92 1017.5
20260507032307 8 155 0.0 0.0 0.00 0.08 0.05 92 1017.5
20260507032204 8 155 0.0 0.0 0.00 0.08 0.05 92 1017.6
20260507032104 8 155 0.0 0.0 0.00 0.08 0.05 92 1017.6
20260507032005 8 155 0.0 0.0 0.00 0.08 0.05 92 1017.6
20260507031904 8 155 0.0 0.0 0.00 0.08 0.05 92 1017.6
20260507031803 8 155 0.0 0.0 0.00 0.08 0.05 92 1017.6
20260507031702 8 155 0.0 0.0 0.00 0.08 0.05 92 1017.5
20260507031601 8 155 0.0 0.0 0.00 0.08 0.05 92 1017.5
20260507031501 8 155 0.0 0.0 0.00 0.08 0.05 92 1017.5
20260507031359 8 155 0.0 0.0 0.00 0.08 0.05 92 1017.5
20260507031301 8 155 0.0 0.0 0.00 0.08 0.05 92 1017.5
20260507031202 8 155 0.0 0.0 0.00 0.08 0.05 92 1017.5
20260507031100 8 155 0.0 0.0 0.00 0.08 0.05 92 1017.5
20260507030953 8 155 0.0 0.0 0.00 0.08 0.05 92 1017.5
20260507030853 8 155 0.0 0.0 0.00 0.08 0.05 92 1017.4
20260507030751 8 155 0.0 0.0 0.00 0.08 0.05 92 1017.5
20260507030649 8 155 0.0 0.0 0.00 0.08 0.05 92 1017.5
20260507030548 8 155 0.0 0.0 0.00 0.08 0.05 92 1017.5
20260507030448 8 155 0.0 0.0 0.00 0.08 0.05 92 1017.5
20260507030350 8 155 0.0 0.0 0.00 0.08 0.05 92 1017.5
20260507030244 8 155 0.0 0.0 0.00 0.08 0.05 92 1017.5
20260507030142 8 155 0.0 0.0 0.00 0.08 0.05 92 1017.5
20260507030040 8 155 0.0 0.0 0.00 0.08 0.05 92 1017.4
20260507025941 8 155 0.0 0.0 0.00 0.08 0.05 92 1017.5
20260507025836 8 155 0.0 0.0 0.00 0.08 0.05 92 1017.4
20260507025740 8 105 0.0 0.0 0.00 0.08 0.05 92 1017.5
20260507025630 8 78 0.0 0.0 0.00 0.08 0.05 92 1017.4
20260507025530 8 78 0.0 0.0 0.00 0.08 0.05 92 1017.5
20260507025431 8 78 0.0 0.0 0.00 0.08 0.05 92 1017.5
20260507025326 8 78 0.0 0.0 0.00 0.08 0.05 92 1017.5
20260507025231 8 78 0.0 0.0 0.00 0.08 0.05 92 1017.5
20260507025124 8 78 0.0 0.0 0.00 0.08 0.05 92 1017.5
20260507025022 8 78 0.0 0.0 0.00 0.08 0.05 92 1017.5
20260507024925 7 78 0.0 0.0 0.00 0.08 0.05 92 1017.5
20260507024820 7 78 0.0 0.0 0.00 0.08 0.05 92 1017.5
20260507024725 7 78 0.0 0.0 0.00 0.08 0.05 92 1017.4
20260507024617 7 78 0.0 0.0 0.00 0.08 0.05 92 1017.5
20260507024517 7 78 0.0 0.0 0.00 0.08 0.05 92 1017.5
20260507024415 7 78 0.0 0.0 0.00 0.08 0.05 92 1017.5
20260507024315 7 78 0.0 0.0 0.00 0.08 0.05 92 1017.5
20260507024211 7 78 0.0 0.0 0.00 0.08 0.05 92 1017.5
20260507024112 7 78 0.0 0.0 0.00 0.08 0.05 92 1017.5
20260507024013 7 78 0.0 0.0 0.00 0.08 0.05 92 1017.4
20260507023912 7 78 0.0 0.0 0.00 0.08 0.05 92 1017.4
20260507023808 7 78 0.0 0.0 0.00 0.08 0.05 92 1017.4
20260507023707 7 78 0.0 0.0 0.00 0.08 0.05 92 1017.4
20260507023605 7 78 0.0 0.0 0.00 0.08 0.05 92 1017.4
20260507023506 7 78 0.0 0.0 0.00 0.08 0.05 92 1017.4
20260507023405 7 78 0.0 0.0 0.00 0.08 0.05 92 1017.4
20260507023307 7 78 0.0 0.0 0.00 0.08 0.05 92 1017.4
20260507023204 7 78 0.0 0.0 0.00 0.08 0.05 92 1017.4
20260507023104 7 78 0.0 0.0 0.00 0.08 0.05 92 1017.4
20260507023004 7 78 0.0 0.0 0.00 0.08 0.05 92 1017.5
20260507022903 7 78 0.0 0.0 0.00 0.08 0.05 92 1017.4
20260507022803 7 78 0.0 0.0 0.00 0.08 0.05 92 1017.4
20260507022705 7 78 0.0 0.0 0.00 0.08 0.05 92 1017.4
20260507022600 7 78 0.0 0.0 0.00 0.08 0.05 92 1017.4
20260507022503 7 78 0.0 0.0 0.00 0.08 0.05 92 1017.4
20260507022402 7 78 0.0 0.0 0.00 0.08 0.05 92 1017.4
20260507022257 7 80 0.0 0.0 0.00 0.08 0.05 92 1017.3
20260507022157 7 80 0.0 0.0 0.00 0.08 0.05 92 1017.4
20260507022057 7 80 0.0 0.0 0.00 0.08 0.05 92 1017.3
20260507021959 7 80 0.0 0.0 0.00 0.08 0.05 92 1017.4
20260507021856 7 80 0.0 0.0 0.00 0.08 0.05 92 1017.4
20260507021756 7 80 0.0 0.0 0.00 0.08 0.05 92 1017.4
20260507021657 7 80 0.0 0.0 0.00 0.08 0.05 92 1017.4
20260507021554 7 80 0.0 0.0 0.00 0.08 0.05 92 1017.4
20260507021451 7 80 0.0 0.0 0.00 0.08 0.05 92 1017.4
20260507021342 7 80 0.0 0.0 0.00 0.08 0.05 92 1017.4
20260507021238 7 80 0.0 0.0 0.00 0.08 0.05 92 1017.4
20260507021135 7 80 0.0 0.0 0.03 0.08 0.05 91 1017.4
20260507021031 7 80 0.0 0.0 0.03 0.08 0.05 91 1017.4
20260507020933 7 80 0.0 0.0 0.03 0.08 0.05 91 1017.4
20260507020832 7 80 0.0 0.0 0.03 0.08 0.05 91 1017.4
20260507020729 7 80 0.0 0.0 0.03 0.08 0.05 91 1017.4
20260507020629 7 80 0.0 0.0 0.03 0.08 0.05 91 1017.4
20260507020532 7 80 0.0 0.0 0.03 0.08 0.05 91 1017.4
20260507020429 7 80 0.0 0.0 0.03 0.08 0.05 91 1017.4
20260507020330 7 80 0.0 0.0 0.03 0.08 0.05 91 1017.4
20260507020225 7 80 0.0 0.0 0.03 0.08 0.05 91 1017.4
20260507020124 7 80 0.0 0.0 0.03 0.08 0.05 91 1017.4
20260507020021 7 80 0.0 0.0 0.03 0.08 0.05 91 1017.4
20260507015920 7 80 0.0 0.0 0.03 0.05 0.05 91 1017.4
20260507015822 7 80 0.0 0.0 0.03 0.05 0.05 91 1017.4
20260507015716 7 80 0.0 0.0 0.03 0.05 0.05 91 1017.4
20260507015617 7 80 0.0 0.0 0.03 0.05 0.05 91 1017.4
20260507015516 7 80 0.0 0.0 0.03 0.05 0.05 91 1017.3
20260507015416 7 80 0.0 0.0 0.03 0.05 0.05 91 1017.3
20260507015308 7 80 0.0 0.0 0.03 0.05 0.05 91 1017.3
20260507015208 7 80 0.0 0.0 0.03 0.05 0.05 91 1017.3
20260507015105 7 80 0.0 0.0 0.03 0.05 0.05 91 1017.3
20260507015005 7 80 0.0 0.0 0.03 0.05 0.05 91 1017.2
20260507014905 7 80 0.0 0.0 0.03 0.05 0.05 91 1017.2
20260507014759 7 80 0.0 0.0 0.03 0.05 0.05 91 1017.2
20260507014703 7 80 0.0 0.0 0.03 0.05 0.05 91 1017.2
20260507014557 7 80 0.0 0.0 0.03 0.05 0.05 91 1017.1
20260507014458 7 80 0.0 0.0 0.03 0.05 0.05 91 1017.2
20260507014356 7 80 0.0 0.0 0.03 0.05 0.05 91 1017.2
20260507014250 7 80 0.0 0.0 0.03 0.05 0.05 91 1017.1
20260507014149 7 80 0.0 0.0 0.03 0.05 0.05 91 1017.1
20260507014045 7 80 0.0 0.0 0.03 0.05 0.05 91 1017.1
20260507013946 7 80 0.0 0.0 0.03 0.05 0.05 91 1017.2
20260507013846 7 80 0.0 0.0 0.03 0.05 0.05 91 1017.1
20260507013745 7 80 0.0 0.0 0.03 0.05 0.05 91 1017.1
20260507013642 8 80 0.0 0.0 0.03 0.05 0.05 91 1017.2
20260507013545 8 80 0.0 0.0 0.03 0.05 0.05 91 1017.1
20260507013441 8 80 0.0 0.0 0.03 0.05 0.05 91 1017.1
20260507013337 8 80 0.0 0.0 0.03 0.05 0.05 91 1017.0
20260507013236 8 80 0.0 0.0 0.03 0.05 0.05 91 1017.0
20260507013142 8 80 0.0 0.0 0.03 0.05 0.05 91 1017.1
20260507013034 8 80 0.0 0.0 0.03 0.05 0.05 91 1017.1
20260507012931 8 80 0.0 0.0 0.03 0.05 0.05 91 1017.0
20260507012832 8 80 0.0 0.0 0.03 0.05 0.05 91 1017.0
20260507012736 8 80 0.0 0.0 0.03 0.05 0.05 91 1017.0
20260507012637 8 80 0.0 0.0 0.03 0.05 0.05 91 1017.0
20260507012531 8 80 0.0 0.0 0.03 0.05 0.05 91 1017.0
20260507012432 8 80 0.0 0.0 0.03 0.05 0.05 91 1017.0
20260507012332 8 80 0.0 0.0 0.03 0.05 0.05 91 1017.0
20260507012232 8 80 0.0 0.0 0.03 0.05 0.05 91 1017.0
20260507012137 8 80 0.0 0.0 0.03 0.05 0.05 91 1017.0
20260507012031 8 80 0.0 0.0 0.03 0.05 0.05 91 1016.9
20260507011932 8 80 0.0 0.0 0.03 0.05 0.05 91 1016.9
20260507011830 8 80 0.0 0.0 0.03 0.05 0.05 91 1017.0
20260507011730 8 80 0.0 0.0 0.03 0.05 0.05 91 1017.0
20260507011629 8 80 0.0 0.0 0.03 0.05 0.05 91 1017.0
20260507011532 8 80 0.0 0.0 0.03 0.05 0.05 91 1017.0
20260507011429 8 80 0.0 0.0 0.03 0.05 0.05 91 1017.0
20260507011330 8 80 0.0 0.0 0.03 0.05 0.05 91 1017.0
20260507011229 8 80 0.0 0.0 0.03 0.05 0.03 91 1017.0
20260507011129 8 80 0.0 0.0 0.00 0.05 0.03 91 1017.0
20260507011029 8 80 0.0 0.0 0.00 0.05 0.03 91 1017.0
20260507010930 8 80 0.0 0.0 0.00 0.05 0.03 91 1017.1
20260507010824 8 80 0.0 0.0 0.00 0.05 0.03 91 1017.1
20260507010724 8 80 0.0 0.0 0.00 0.05 0.03 91 1017.1
20260507010621 8 80 0.0 0.0 0.00 0.05 0.03 91 1017.1
20260507010522 8 80 0.0 0.0 0.00 0.05 0.03 91 1017.1
20260507010424 8 80 0.0 0.0 0.00 0.05 0.03 91 1017.1
20260507010317 8 80 0.0 0.0 0.00 0.05 0.03 91 1017.1
20260507010217 8 80 0.0 0.0 0.00 0.05 0.03 91 1017.1
20260507010118 8 80 0.0 0.0 0.00 0.05 0.03 91 1017.1
20260507010016 8 80 0.0 0.0 0.00 0.05 0.03 91 1017.0
20260507005914 8 80 0.0 0.0 0.00 0.05 0.03 91 1017.1
20260507005808 8 80 0.0 0.0 0.00 0.05 0.03 91 1017.1
20260507005708 8 80 0.0 0.0 0.00 0.05 0.03 91 1017.1
20260507005604 8 80 0.0 0.0 0.00 0.05 0.03 91 1017.1
20260507005502 8 80 0.0 0.0 0.00 0.05 0.03 91 1017.1
20260507005404 8 80 0.0 0.0 0.00 0.05 0.03 91 1017.1
20260507005306 8 80 0.0 0.0 0.00 0.05 0.03 91 1017.1
20260507005202 8 80 0.0 0.0 0.00 0.05 0.03 91 1017.1
20260507005100 8 80 0.0 0.0 0.00 0.05 0.03 91 1017.0
20260507005002 8 80 0.0 0.0 0.00 0.05 0.03 91 1017.1
20260507004857 8 60 0.0 0.0 0.00 0.05 0.03 91 1017.0
20260507004750 8 60 0.0 0.0 0.00 0.05 0.03 91 1017.0
20260507004648 8 60 0.0 0.0 0.00 0.05 0.03 91 1017.0
20260507004549 8 60 0.0 0.0 0.00 0.05 0.03 91 1017.0
20260507004445 8 60 0.0 0.0 0.00 0.05 0.03 91 1017.0
20260507004346 8 56 0.0 0.0 0.00 0.05 0.03 91 1017.0
20260507004242 8 56 0.0 0.0 0.00 0.05 0.03 91 1017.1
20260507004138 8 56 0.0 0.0 0.00 0.05 0.03 91 1017.1
20260507004039 8 56 0.0 0.0 0.00 0.05 0.03 91 1017.1
20260507003939 8 56 0.0 0.0 0.00 0.05 0.03 91 1017.0
20260507003840 8 56 0.0 0.0 0.00 0.05 0.03 91 1017.0
20260507003739 8 56 0.0 0.0 0.00 0.05 0.03 91 1017.0
20260507003642 8 56 0.0 0.0 0.00 0.05 0.03 91 1017.0
20260507003538 8 56 0.0 0.0 0.00 0.05 0.03 91 1017.1
20260507003436 8 56 0.0 0.0 0.00 0.05 0.03 91 1017.1
20260507003336 8 56 0.0 0.0 0.00 0.05 0.03 91 1017.1
20260507003235 8 56 0.0 0.0 0.00 0.05 0.03 91 1017.0
20260507003136 8 56 0.0 0.0 0.00 0.05 0.03 91 1017.1
20260507003031 8 56 0.0 0.0 0.00 0.05 0.03 91 1017.0
20260507002932 8 56 0.0 0.0 0.00 0.05 0.03 91 1017.1
20260507002831 8 56 0.0 0.0 0.00 0.05 0.03 91 1017.0
20260507002735 8 56 0.0 0.0 0.00 0.05 0.03 91 1017.0
20260507002631 8 56 0.0 0.0 0.00 0.05 0.03 91 1017.0
20260507002534 8 56 0.0 0.0 0.00 0.05 0.03 91 1017.1
20260507002431 8 56 0.0 0.0 0.00 0.05 0.03 91 1017.1
20260507002333 8 56 0.0 0.0 0.00 0.05 0.03 91 1017.1
20260507002231 8 57 0.0 0.0 0.00 0.05 0.03 91 1017.1
20260507002131 8 300 0.0 0.0 0.00 0.05 0.03 91 1017.0
20260507002032 8 300 0.0 0.0 0.00 0.05 0.03 91 1017.1
20260507001931 8 300 0.0 0.0 0.00 0.05 0.03 91 1017.0
20260507001831 8 300 0.0 0.0 0.00 0.05 0.03 91 1017.0
20260507001730 8 300 0.0 0.0 0.00 0.05 0.03 91 1017.0
20260507001632 8 300 0.0 0.0 0.00 0.05 0.03 91 1017.0
20260507001532 8 300 0.0 0.0 0.00 0.05 0.03 91 1017.0
20260507001432 8 300 0.0 0.0 0.00 0.05 0.03 91 1017.0
20260507001331 8 300 0.0 0.0 0.00 0.05 0.03 91 1017.0
20260507001232 8 300 0.0 0.0 0.00 0.05 0.03 91 1017.0
20260507001128 8 300 0.0 0.0 0.00 0.05 0.03 91 1017.0
20260507001030 8 300 0.0 0.0 0.00 0.05 0.03 91 1017.0
20260507000928 8 300 0.0 0.0 0.00 0.05 0.03 91 1017.0
20260507000827 8 300 0.0 0.0 0.00 0.05 0.03 91 1017.0
20260507000723 8 300 0.0 0.0 0.00 0.05 0.03 91 1017.0
20260507000618 8 300 0.0 0.0 0.00 0.05 0.03 91 1017.0
20260507000514 8 300 0.0 0.0 0.00 0.05 0.03 91 1017.0
20260507000410 8 300 0.0 0.0 0.00 0.05 0.03 91 1016.9
20260507000310 8 300 0.0 0.0 0.00 0.05 0.03 90 1017.0
20260507000212 8 300 0.0 0.0 0.00 0.05 0.03 90 1017.0
20260507000005 8 300 0.0 0.0 0.00 0.05 0.03 90 1017.0
20260506235903 8 300 0.0 0.0 0.00 0.05 0.03 90 1016.9
20260506235803 8 300 0.0 0.0 0.00 0.05 0.03 90 1016.9
20260506235703 8 300 0.0 0.0 0.00 0.05 0.03 90 1016.9
20260506235604 8 300 0.0 0.0 0.00 0.05 0.03 90 1016.9
20260506235503 8 300 0.0 0.0 0.00 0.05 0.03 90 1017.0
20260506235403 8 300 0.0 0.0 0.00 0.05 0.03 90 1016.9
20260506235306 8 300 0.0 0.0 0.00 0.05 0.03 90 1017.0
20260506235206 8 300 0.0 0.0 0.00 0.05 0.03 90 1017.0
20260506235104 8 300 0.0 0.0 0.00 0.05 0.03 90 1017.0
20260506235003 8 300 0.0 0.0 0.00 0.05 0.03 90 1017.0
20260506234903 8 300 0.0 0.0 0.00 0.05 0.03 90 1017.0
20260506234804 8 300 0.0 0.0 0.00 0.05 0.03 90 1016.9
20260506234704 8 300 0.0 0.0 0.00 0.05 0.03 90 1016.9
20260506234604 8 300 0.0 0.0 0.00 0.05 0.03 90 1016.9
20260506234503 8 300 0.0 0.0 0.00 0.05 0.03 90 1017.0
20260506234403 8 300 0.0 0.0 0.00 0.05 0.03 90 1017.0
20260506234304 8 300 0.0 0.0 0.00 0.05 0.03 90 1016.9
20260506234159 8 300 0.0 0.0 0.00 0.05 0.03 90 1017.0
20260506234059 8 300 0.0 0.0 0.00 0.05 0.03 90 1017.0
20260506233959 8 300 0.0 0.0 0.00 0.05 0.03 90 1017.0
20260506233900 8 300 0.0 0.0 0.00 0.05 0.03 89 1017.0
20260506233759 8 300 0.0 0.0 0.00 0.05 0.03 89 1017.0
20260506233702 8 300 0.0 0.0 0.00 0.05 0.03 89 1017.0
20260506233559 8 300 0.0 0.0 0.00 0.05 0.03 89 1017.0
20260506233459 8 300 0.0 0.0 0.00 0.05 0.03 89 1016.9
20260506233359 8 300 0.0 0.0 0.00 0.05 0.03 89 1017.0
20260506233300 8 300 0.0 0.0 0.00 0.05 0.03 89 1017.0
20260506233159 8 300 0.0 1.6 0.00 0.05 0.03 89 1017.0
20260506233102 8 300 0.0 1.6 0.00 0.05 0.03 89 1016.9
20260506232959 8 300 0.0 1.6 0.03 0.05 0.03 89 1017.0
20260506232901 8 300 0.0 1.6 0.03 0.05 0.03 89 1016.9
20260506232759 8 300 0.0 1.6 0.03 0.05 0.03 89 1016.9
20260506232659 8 300 0.0 1.6 0.03 0.05 0.03 89 1016.9
20260506232559 8 300 0.0 1.6 0.03 0.05 0.03 89 1016.9
20260506232459 8 300 0.0 1.6 0.03 0.05 0.03 89 1016.9
20260506232400 8 300 0.0 1.6 0.03 0.05 0.03 89 1016.8
20260506232255 8 300 0.0 1.6 0.03 0.05 0.03 89 1016.8
20260506232158 8 242 0.0 0.0 0.03 0.05 0.03 89 1016.8
20260506232056 8 242 0.0 0.0 0.03 0.05 0.03 89 1016.8
20260506231954 8 242 0.0 0.0 0.03 0.05 0.03 89 1016.8
20260506231856 8 242 0.0 0.0 0.03 0.05 0.03 89 1016.7
20260506231758 8 242 0.0 0.0 0.03 0.05 0.03 89 1016.8
20260506231654 8 242 0.0 1.6 0.03 0.05 0.03 89 1016.7
20260506231555 8 242 0.0 1.6 0.03 0.05 0.03 89 1016.7
20260506231451 8 242 0.0 1.6 0.03 0.05 0.03 89 1016.7
20260506231352 8 242 0.0 1.6 0.03 0.05 0.03 89 1016.7
20260506231253 8 240 0.0 1.6 0.03 0.05 0.03 89 1016.7
20260506231151 8 296 0.0 1.6 0.03 0.05 0.03 89 1016.7
20260506230947 8 296 0.0 1.6 0.03 0.05 0.03 89 1016.8
20260506230847 8 295 0.0 1.6 0.03 0.05 0.03 89 1016.8
20260506230746 8 258 0.0 1.6 0.03 0.05 0.03 89 1016.8
20260506230647 8 252 0.0 1.6 0.03 0.05 0.03 89 1016.9
20260506230547 8 236 0.0 1.6 0.03 0.05 0.03 89 1016.8
20260506230451 8 288 0.0 1.6 0.03 0.05 0.03 89 1016.8
20260506230347 8 288 0.0 1.6 0.03 0.05 0.03 89 1016.9
20260506230246 8 301 0.0 1.6 0.03 0.05 0.03 89 1016.9
20260506230150 8 301 0.0 1.6 0.03 0.05 0.03 89 1016.9
20260506230047 8 301 0.0 1.6 0.03 0.05 0.03 89 1016.9
20260506225946 8 274 0.0 1.6 0.03 0.03 0.03 89 1016.8
20260506225839 8 248 0.0 1.6 0.03 0.03 0.03 89 1016.9
20260506225741 8 248 0.0 1.6 0.03 0.03 0.03 89 1016.9
20260506225640 8 247 0.0 1.6 0.03 0.03 0.03 89 1016.9
20260506225540 8 213 0.0 1.6 0.05 0.03 0.03 89 1016.9
20260506225442 8 213 0.0 1.6 0.05 0.03 0.03 89 1016.9
20260506225339 8 213 0.0 14.5 0.05 0.03 0.03 88 1016.9
20260506225239 8 212 0.0 14.5 0.05 0.03 0.03 89 1016.9
20260506225140 8 211 0.0 14.5 0.05 0.03 0.03 89 1017.0
20260506225039 8 26 0.0 14.5 0.05 0.03 0.03 89 1017.0
20260506224942 8 223 0.0 14.5 0.05 0.03 0.03 89 1016.9
20260506224839 9 219 0.0 14.5 0.05 0.03 0.03 89 1016.9
20260506224742 9 219 0.0 14.5 0.05 0.03 0.03 89 1017.0
20260506224639 9 254 0.0 14.5 0.05 0.03 0.03 89 1016.9
20260506224539 9 254 0.0 14.5 0.05 0.03 0.03 89 1016.9
20260506224442 9 261 0.0 14.5 0.05 0.03 0.03 89 1016.9
20260506224338 9 241 0.0 11.3 0.05 0.03 0.03 89 1017.0
20260506224238 9 251 0.0 6.4 0.05 0.03 0.03 89 1016.9
20260506224141 9 209 0.0 6.4 0.05 0.03 0.03 89 1016.9
20260506224043 9 286 0.0 6.4 0.05 0.03 0.03 89 1016.9
20260506223935 9 243 0.0 6.4 0.05 0.03 0.03 89 1016.9
20260506223837 9 239 0.0 6.4 0.05 0.03 0.03 89 1017.0
20260506223735 9 229 0.0 6.4 0.05 0.03 0.03 89 1016.9
20260506223635 9 244 0.0 6.4 0.05 0.03 0.03 89 1016.9
20260506223535 9 254 0.0 6.4 0.05 0.03 0.03 89 1017.0
20260506223438 9 240 0.0 6.4 0.05 0.03 0.03 88 1017.0
20260506223335 9 240 0.0 6.4 0.05 0.03 0.03 89 1017.0
20260506223235 9 297 0.0 4.8 0.05 0.03 0.03 89 1017.0
20260506223136 9 229 0.0 4.8 0.05 0.03 0.03 89 1017.1
20260506223035 9 219 0.0 4.8 0.05 0.03 0.00 89 1017.1
20260506222935 9 239 0.0 3.2 0.03 0.03 0.00 88 1017.1
20260506222838 9 257 0.0 3.2 0.03 0.03 0.00 88 1017.1
20260506222735 9 256 0.0 3.2 0.03 0.03 0.00 88 1017.1
20260506222636 9 256 0.0 3.2 0.03 0.03 0.00 88 1017.1
20260506222536 9 233 0.0 3.2 0.03 0.03 0.00 88 1017.1
20260506222437 9 241 0.0 1.6 0.03 0.03 0.00 88 1017.1
20260506222335 9 236 0.0 1.6 0.03 0.03 0.00 88 1017.1
20260506222236 9 200 0.0 1.6 0.03 0.03 0.00 88 1017.1
20260506222135 9 200 0.0 1.6 0.03 0.03 0.00 88 1017.1
20260506222102 10 200 0.0 1.6 0.03 0.03 0.00 88 1017.1
20260506221933 10 200 0.0 1.6 0.03 0.03 0.00 88 1017.1
20260506221831 10 292 0.0 1.6 0.03 0.03 0.00 88 1017.1
20260506221731 10 234 0.0 1.6 0.03 0.03 0.00 88 1017.2
20260506221632 10 234 0.0 1.6 0.03 0.03 0.00 88 1017.2
20260506221534 10 234 0.0 1.6 0.03 0.03 0.00 88 1017.2
20260506221432 10 234 0.0 1.6 0.03 0.03 0.00 88 1017.2
20260506221331 10 234 0.0 1.6 0.03 0.03 0.00 88 1017.1
20260506221231 10 234 0.0 1.6 0.03 0.03 0.00 88 1017.2
20260506221134 10 240 0.0 1.6 0.03 0.03 0.00 88 1017.1
20260506221031 10 242 0.0 1.6 0.03 0.03 0.00 88 1017.2
20260506220932 10 265 0.0 1.6 0.03 0.03 0.00 88 1017.2
20260506220831 10 281 0.0 0.0 0.03 0.03 0.00 88 1017.2
20260506220733 10 319 0.0 0.0 0.03 0.03 0.00 88 1017.2
20260506220631 10 321 0.0 0.0 0.03 0.03 0.00 88 1017.2
20260506220531 10 321 0.0 0.0 0.03 0.03 0.00 89 1017.1
20260506220431 10 321 0.0 0.0 0.03 0.03 0.00 89 1017.2
20260506220334 10 355 0.0 0.0 0.03 0.03 0.00 89 1017.2
20260506220233 10 327 0.0 0.0 0.03 0.03 0.00 89 1017.2
20260506220127 10 328 0.0 0.0 0.03 0.03 0.00 89 1017.1
20260506220026 10 340 0.0 0.0 0.03 0.03 0.00 89 1017.1
20260506215928 10 219 0.0 0.0 0.03 0.00 0.03 89 1017.2
20260506215829 10 219 0.0 0.0 0.03 0.00 0.03 88 1017.1
20260506215725 10 219 0.0 0.0 0.03 0.00 0.03 88 1017.1
20260506215622 10 219 0.0 0.0 0.03 0.00 0.00 88 1017.1
20260506215520 10 219 0.0 0.0 0.00 0.00 0.00 88 1017.0
20260506215423 10 219 0.0 0.0 0.00 0.00 0.00 88 1017.1
20260506215318 10 219 0.0 0.0 0.00 0.00 0.00 88 1017.1
20260506215218 10 219 0.0 0.0 0.00 0.00 0.00 88 1017.0
20260506215118 10 219 0.0 0.0 0.00 0.00 0.00 88 1017.0
20260506215016 10 219 0.0 0.0 0.00 0.00 0.00 88 1017.1
20260506214914 10 219 0.0 0.0 0.00 0.00 0.00 88 1017.1
20260506214816 10 219 0.0 0.0 0.00 0.00 0.00 88 1017.0
20260506214712 10 219 0.0 0.0 0.00 0.00 0.00 88 1017.0
20260506214613 10 219 0.0 0.0 0.00 0.00 0.00 88 1017.0
20260506214514 10 219 0.0 0.0 0.00 0.00 0.00 88 1017.0
20260506214415 10 219 0.0 0.0 0.00 0.00 0.00 88 1016.9
20260506214313 10 219 0.0 0.0 0.00 0.00 0.00 88 1016.9
20260506214208 10 219 0.0 0.0 0.00 0.00 0.00 88 1016.9
20260506214109 10 219 0.0 0.0 0.00 0.00 0.00 88 1016.9
20260506214006 10 219 0.0 0.0 0.00 0.00 0.00 88 1016.8
20260506213904 10 219 0.0 0.0 0.00 0.00 0.00 88 1016.8
20260506213804 10 219 0.0 0.0 0.00 0.00 0.00 87 1016.8
20260506213705 10 219 0.0 0.0 0.00 0.00 0.00 87 1016.8
20260506213605 10 219 0.0 0.0 0.00 0.00 0.00 87 1016.8
20260506213503 10 219 0.0 0.0 0.00 0.00 0.00 87 1016.8
20260506213405 10 219 0.0 0.0 0.00 0.00 0.00 87 1016.7
20260506213305 10 219 0.0 0.0 0.00 0.00 0.00 87 1016.8
20260506213202 10 219 0.0 0.0 0.00 0.00 0.00 87 1016.8
20260506213101 10 219 0.0 0.0 0.00 0.00 0.00 87 1016.7
20260506213003 10 219 0.0 0.0 0.00 0.00 0.00 88 1016.8
20260506212854 10 219 0.0 0.0 0.00 0.00 0.00 88 1016.7
20260506212755 10 219 0.0 0.0 0.00 0.00 0.00 88 1016.7
20260506212652 10 219 0.0 0.0 0.00 0.00 0.00 88 1016.7
20260506212549 10 219 0.0 0.0 0.00 0.00 0.00 88 1016.7
20260506212451 10 219 0.0 0.0 0.00 0.00 0.00 88 1016.7
20260506212345 10 219 0.0 0.0 0.00 0.00 0.00 88 1016.7
20260506212243 10 219 0.0 0.0 0.00 0.00 0.00 88 1016.7
20260506212143 10 219 0.0 0.0 0.00 0.00 0.00 88 1016.6
20260506212039 10 219 0.0 0.0 0.00 0.00 0.00 88 1016.7
20260506211940 10 219 0.0 0.0 0.00 0.00 0.00 88 1016.6
20260506211832 10 219 0.0 0.0 0.00 0.00 0.00 88 1016.7
20260506211733 10 219 0.0 0.0 0.00 0.00 0.00 88 1016.7
20260506211630 10 219 0.0 0.0 0.00 0.00 0.00 88 1016.7
20260506211530 10 219 0.0 0.0 0.00 0.00 0.00 88 1016.7
20260506211429 10 219 0.0 0.0 0.00 0.00 0.00 88 1016.7
20260506211333 10 219 0.0 0.0 0.00 0.00 0.00 88 1016.6
20260506211231 10 219 0.0 0.0 0.00 0.00 0.00 88 1016.7
20260506211132 10 219 0.0 0.0 0.00 0.00 0.00 88 1016.7
20260506211030 10 219 0.0 0.0 0.00 0.00 0.00 88 1016.7
20260506210931 10 219 0.0 0.0 0.00 0.00 0.00 88 1016.7
20260506210830 10 219 0.0 0.0 0.00 0.00 0.00 88 1016.7
20260506210733 10 219 0.0 0.0 0.00 0.00 0.00 88 1016.7
20260506210629 10 219 0.0 0.0 0.00 0.00 0.00 88 1016.6
20260506210529 10 219 0.0 0.0 0.00 0.00 0.00 88 1016.6
20260506210431 10 219 0.0 0.0 0.00 0.00 0.00 88 1016.6
20260506210330 10 219 0.0 0.0 0.00 0.00 0.00 88 1016.6
20260506210229 10 219 0.0 0.0 0.00 0.00 0.00 88 1016.6
20260506210130 10 219 0.0 0.0 0.00 0.00 0.00 88 1016.6
20260506210029 10 219 0.0 0.0 0.00 0.00 0.00 88 1016.6
20260506205932 10 219 0.0 0.0 0.00 0.00 0.00 88 1016.6
20260506205829 10 219 0.0 0.0 0.00 0.00 0.00 88 1016.6
20260506205728 10 219 0.0 0.0 0.00 0.00 0.00 88 1016.6
20260506205628 10 219 0.0 0.0 0.00 0.00 0.00 88 1016.6
20260506205530 10 219 0.0 0.0 0.00 0.00 0.00 88 1016.6
20260506205423 10 219 0.0 0.0 0.00 0.00 0.00 88 1016.6
20260506205320 10 219 0.0 0.0 0.00 0.00 0.00 88 1016.6
20260506205221 10 219 0.0 0.0 0.00 0.00 0.00 88 1016.6
20260506205123 10 219 0.0 0.0 0.00 0.00 0.00 87 1016.6
20260506205021 10 219 0.0 0.0 0.00 0.00 0.00 87 1016.6
20260506204921 10 219 0.0 0.0 0.00 0.00 0.00 87 1016.6
20260506204821 10 219 0.0 0.0 0.00 0.00 0.00 87 1016.6
20260506204718 10 219 0.0 0.0 0.00 0.00 0.00 87 1016.6
20260506204616 10 219 0.0 0.0 0.00 0.00 0.00 87 1016.6
20260506204517 10 219 0.0 0.0 0.00 0.00 0.00 87 1016.6
20260506204417 10 219 0.0 0.0 0.00 0.00 0.00 87 1016.6
20260506204316 10 219 0.0 0.0 0.00 0.00 0.00 87 1016.6
20260506204216 10 219 0.0 0.0 0.00 0.00 0.00 87 1016.6
20260506204119 10 219 0.0 0.0 0.00 0.00 0.00 87 1016.6
20260506204014 10 219 0.0 0.0 0.00 0.00 0.00 87 1016.6
20260506203915 10 219 0.0 0.0 0.00 0.00 0.00 87 1016.6
20260506203814 10 219 0.0 0.0 0.00 0.00 0.00 87 1016.6
20260506203707 10 219 0.0 0.0 0.00 0.00 0.00 87 1016.5
20260506203601 10 219 0.0 0.0 0.00 0.00 0.00 87 1016.5
20260506203503 10 219 0.0 0.0 0.00 0.00 0.00 87 1016.5
20260506203403 10 219 0.0 0.0 0.00 0.00 0.00 87 1016.5
20260506203305 10 219 0.0 0.0 0.00 0.00 0.00 87 1016.5
20260506203205 10 219 0.0 0.0 0.00 0.00 0.00 87 1016.5
20260506203101 10 219 0.0 0.0 0.00 0.00 0.00 87 1016.5
20260506203003 10 219 0.0 0.0 0.00 0.00 0.00 87 1016.5
20260506202901 10 219 0.0 0.0 0.00 0.00 0.00 87 1016.5
20260506202803 10 219 0.0 0.0 0.00 0.00 0.00 87 1016.4
20260506202704 10 219 0.0 0.0 0.00 0.00 0.00 87 1016.4
20260506202601 10 219 0.0 0.0 0.00 0.00 0.00 87 1016.4
20260506202502 10 219 0.0 0.0 0.00 0.00 0.00 87 1016.4
20260506202401 10 219 0.0 0.0 0.00 0.00 0.00 87 1016.4
20260506202258 10 219 0.0 0.0 0.00 0.00 0.00 87 1016.3
20260506202158 10 219 0.0 0.0 0.00 0.00 0.00 87 1016.4
20260506202057 10 219 0.0 0.0 0.00 0.00 0.00 87 1016.4
20260506201950 10 219 0.0 0.0 0.00 0.00 0.00 87 1016.3
20260506201850 10 219 0.0 0.0 0.00 0.00 0.00 87 1016.3
20260506201751 10 219 0.0 0.0 0.00 0.00 0.00 87 1016.3
20260506201653 10 219 0.0 0.0 0.00 0.00 0.00 86 1016.3
20260506201551 10 219 0.0 0.0 0.00 0.00 0.00 87 1016.3
20260506201453 10 219 0.0 0.0 0.00 0.00 0.00 86 1016.1
20260506201351 10 219 0.0 0.0 0.00 0.00 0.00 86 1016.1
20260506201251 10 219 0.0 0.0 0.00 0.00 0.00 86 1016.1
20260506201150 10 219 0.0 0.0 0.00 0.00 0.00 86 1016.3
20260506201049 10 219 0.0 0.0 0.00 0.00 0.00 86 1016.1
20260506200951 10 219 0.0 0.0 0.00 0.00 0.00 86 1016.1
20260506200852 10 219 0.0 0.0 0.00 0.00 0.00 86 1016.1
20260506200750 10 219 0.0 0.0 0.00 0.00 0.00 86 1016.1
20260506200652 10 219 0.0 0.0 0.00 0.00 0.00 86 1016.1
20260506200550 10 219 0.0 0.0 0.00 0.00 0.00 86 1016.1
20260506200453 10 219 0.0 0.0 0.00 0.00 0.00 86 1016.1
20260506200350 10 219 0.0 0.0 0.00 0.00 0.00 86 1016.1
20260506200250 10 219 0.0 0.0 0.00 0.00 0.00 86 1016.0
20260506200153 10 219 0.0 0.0 0.00 0.00 0.00 85 1016.0
20260506200046 10 219 0.0 0.0 0.00 0.00 0.00 85 1016.0
20260506195949 10 219 0.0 0.0 0.00 0.00 0.00 85 1016.0
20260506195847 10 203 0.0 0.0 0.00 0.00 0.00 85 1016.0
20260506195746 10 199 0.0 0.0 0.00 0.00 0.00 85 1016.0
20260506195646 10 199 0.0 0.0 0.00 0.00 0.00 85 1016.0
20260506195547 10 199 0.0 0.0 0.00 0.00 0.00 85 1015.9
20260506195446 10 199 0.0 0.0 0.00 0.00 0.00 85 1015.9
20260506195348 10 199 0.0 0.0 0.00 0.00 0.00 85 1015.9
20260506195249 10 199 0.0 0.0 0.00 0.00 0.00 85 1015.9
20260506195146 10 199 0.0 0.0 0.00 0.00 0.00 85 1015.9
20260506195049 10 199 0.0 0.0 0.00 0.00 0.00 85 1015.9
20260506194946 10 199 0.0 0.0 0.00 0.00 0.00 85 1015.8
20260506194845 10 199 0.0 0.0 0.00 0.00 0.00 85 1015.8
20260506194747 10 199 0.0 0.0 0.00 0.00 0.00 85 1015.8
20260506194649 10 199 0.0 0.0 0.00 0.00 0.00 84 1015.8
20260506194547 10 199 0.0 0.0 0.00 0.00 0.00 84 1015.8
20260506194448 10 199 0.0 0.0 0.00 0.00 0.00 84 1015.7
20260506194346 10 199 0.0 0.0 0.00 0.00 0.00 84 1015.7
20260506194249 10 199 0.0 0.0 0.00 0.00 0.00 84 1015.7
20260506194142 10 199 0.0 0.0 0.00 0.00 0.00 84 1015.7
20260506194043 10 199 0.0 0.0 0.00 0.00 0.00 84 1015.7
20260506193943 10 199 0.0 0.0 0.00 0.00 0.00 84 1015.7
20260506193842 10 199 0.0 0.0 0.00 0.00 0.00 84 1015.7
20260506193744 10 199 0.0 0.0 0.00 0.00 0.00 83 1015.7
20260506193647 10 199 0.0 0.0 0.00 0.00 0.00 83 1015.6
20260506193542 10 199 0.0 0.0 0.00 0.00 0.00 83 1015.6
20260506193444 10 199 0.0 0.0 0.00 0.00 0.00 83 1015.6
20260506193342 10 199 0.0 0.0 0.00 0.00 0.00 83 1015.6
20260506193242 10 199 0.0 0.0 0.00 0.00 0.00 83 1015.6
20260506193145 10 199 0.0 0.0 0.00 0.00 0.00 83 1015.6
20260506193042 11 199 0.0 0.0 0.00 0.00 0.00 83 1015.5
20260506192934 11 199 0.0 0.0 0.00 0.00 0.00 83 1015.6
20260506192835 11 199 0.0 0.0 0.00 0.00 0.00 83 1015.5
20260506192737 11 199 0.0 0.0 0.00 0.00 0.00 83 1015.5
20260506192634 11 199 0.0 0.0 0.00 0.00 0.00 83 1015.5
20260506192534 11 199 0.0 0.0 0.00 0.00 0.00 83 1015.5
20260506192434 11 199 0.0 0.0 0.00 0.00 0.00 83 1015.4
20260506192334 11 199 0.0 0.0 0.00 0.00 0.00 83 1015.4
20260506192237 11 199 0.0 0.0 0.00 0.00 0.00 83 1015.4
20260506192134 11 199 0.0 0.0 0.00 0.00 0.00 83 1015.4
20260506192034 11 199 0.0 0.0 0.00 0.00 0.00 83 1015.4
20260506191938 11 199 0.0 0.0 0.00 0.00 0.00 83 1015.4
20260506191835 11 199 0.0 0.0 0.00 0.00 0.00 83 1015.4
20260506191736 11 199 0.0 0.0 0.00 0.00 0.00 83 1015.4
20260506191634 11 199 0.0 0.0 0.00 0.00 0.00 83 1015.4
20260506191536 11 199 0.0 0.0 0.00 0.00 0.00 83 1015.4
20260506191433 11 199 0.0 0.0 0.00 0.00 0.00 83 1015.3
20260506191334 11 199 0.0 0.0 0.00 0.00 0.00 83 1015.3
20260506191234 11 199 0.0 0.0 0.00 0.00 0.00 82 1015.3
20260506191137 11 199 0.0 0.0 0.00 0.00 0.00 82 1015.3
20260506191030 11 199 0.0 0.0 0.00 0.00 0.00 82 1015.3
20260506190930 11 199 0.0 0.0 0.00 0.00 0.00 82 1015.3
20260506190831 11 199 0.0 0.0 0.00 0.00 0.00 82 1015.3
20260506190733 11 199 0.0 0.0 0.00 0.00 0.00 82 1015.3
20260506190630 11 199 0.0 0.0 0.00 0.00 0.00 82 1015.2
20260506190530 11 199 0.0 0.0 0.00 0.00 0.00 82 1015.2
20260506190430 11 199 0.0 0.0 0.00 0.00 0.00 82 1015.2
20260506190330 11 199 0.0 0.0 0.00 0.00 0.00 82 1015.2
20260506190230 11 199 0.0 0.0 0.00 0.00 0.00 81 1015.2
20260506190132 11 199 0.0 0.0 0.00 0.00 0.00 81 1015.2
20260506190029 11 199 0.0 0.0 0.00 0.00 0.00 81 1015.2
20260506185930 11 199 0.0 0.0 0.00 0.00 0.00 81 1015.2
20260506185830 11 199 0.0 0.0 0.00 0.00 0.00 81 1015.2
20260506185730 11 199 0.0 0.0 0.00 0.00 0.00 81 1015.2
20260506185632 11 199 0.0 0.0 0.00 0.00 0.00 81 1015.2
20260506185531 11 199 0.0 0.0 0.00 0.00 0.00 81 1015.2
20260506185430 11 199 0.0 0.0 0.00 0.00 0.00 81 1015.2
20260506185329 11 199 0.0 0.0 0.00 0.00 0.00 81 1015.1
20260506185232 11 199 0.0 0.0 0.00 0.00 0.00 81 1015.1
20260506185127 11 199 0.0 0.0 0.00 0.00 0.00 81 1015.1
20260506185027 11 199 0.0 0.0 0.00 0.00 0.00 81 1015.1
20260506184929 11 199 0.0 0.0 0.00 0.00 0.00 81 1015.1
20260506184826 11 199 0.0 0.0 0.00 0.00 0.00 81 1015.1
20260506184726 11 199 0.0 0.0 0.00 0.00 0.00 81 1015.1
20260506184628 11 199 0.0 0.0 0.00 0.00 0.00 81 1015.1
20260506184427 11 199 0.0 0.0 0.00 0.00 0.00 81 1015.1
20260506184328 11 199 0.0 0.0 0.00 0.00 0.00 81 1015.1
20260506184226 11 199 0.0 0.0 0.00 0.00 0.00 80 1015.1
20260506184129 11 199 0.0 0.0 0.00 0.00 0.00 81 1015.0
20260506184026 12 199 0.0 0.0 0.00 0.00 0.00 80 1015.1
20260506183926 12 199 0.0 0.0 0.00 0.00 0.00 80 1015.0
20260506183826 12 199 0.0 0.0 0.00 0.00 0.00 79 1015.0
20260506183727 12 199 0.0 0.0 0.00 0.00 0.00 79 1015.0
20260506183625 12 199 0.0 0.0 0.00 0.00 0.00 79 1015.0
20260506183526 12 199 0.0 0.0 0.00 0.00 0.00 79 1015.0
20260506183429 12 199 0.0 0.0 0.00 0.00 0.00 78 1015.0
20260506183327 12 199 0.0 0.0 0.00 0.00 0.00 78 1015.0
20260506183224 12 199 0.0 0.0 0.00 0.00 0.00 77 1015.0
20260506183122 12 199 0.0 0.0 0.00 0.00 0.00 78 1015.0
20260506183023 12 199 0.0 0.0 0.00 0.00 0.00 78 1015.0
20260506182923 12 199 0.0 0.0 0.00 0.00 0.00 78 1015.0
20260506182827 12 199 0.0 0.0 0.00 0.00 0.00 78 1015.0
20260506182722 12 199 0.0 0.0 0.00 0.00 0.00 78 1015.0
20260506182622 12 199 0.0 0.0 0.00 0.00 0.00 78 1015.0
20260506182522 12 199 0.0 0.0 0.00 0.00 0.00 78 1014.9
20260506182425 12 199 0.0 0.0 0.00 0.00 0.00 78 1015.0
20260506182324 12 199 0.0 0.0 0.00 0.00 0.00 77 1014.9
20260506182222 12 199 0.0 0.0 0.00 0.00 0.00 77 1014.9
20260506182122 12 199 0.0 0.0 0.00 0.00 0.00 77 1014.9
20260506182024 12 199 0.0 0.0 0.00 0.00 0.00 77 1014.9
20260506181921 12 199 0.0 0.0 0.00 0.00 0.00 77 1014.9
20260506181824 12 199 0.0 0.0 0.00 0.00 0.00 77 1014.9
20260506181722 12 199 0.0 0.0 0.00 0.00 0.00 77 1014.9
20260506181622 12 199 0.0 0.0 0.00 0.00 0.00 77 1014.9
20260506181525 12 199 0.0 0.0 0.00 0.00 0.00 77 1014.9
20260506181422 12 199 0.0 0.0 0.00 0.00 0.00 77 1014.9
20260506181321 12 199 0.0 0.0 0.00 0.00 0.00 77 1014.9
20260506181218 12 199 0.0 0.0 0.00 0.00 0.00 77 1014.9
20260506181117 12 199 0.0 0.0 0.00 0.00 0.00 77 1014.9
20260506181021 12 199 0.0 0.0 0.00 0.00 0.00 77 1014.9
20260506180918 12 199 0.0 0.0 0.00 0.00 0.00 78 1014.9
20260506180818 12 199 0.0 0.0 0.00 0.00 0.00 78 1014.9
20260506180718 12 199 0.0 0.0 0.00 0.00 0.00 78 1014.9
20260506180618 12 199 0.0 0.0 0.00 0.00 0.00 78 1015.0
20260506180519 12 199 0.0 0.0 0.00 0.00 0.00 78 1015.0
20260506180418 12 199 0.0 0.0 0.00 0.00 0.00 78 1015.0
20260506180318 12 199 0.0 0.0 0.00 0.00 0.00 79 1015.0
20260506180223 12 199 0.0 0.0 0.00 0.00 0.00 79 1015.0
20260506180121 12 199 0.0 0.0 0.00 0.00 0.00 79 1015.1
20260506180019 12 199 0.0 0.0 0.00 0.00 0.00 79 1015.1
20260506175918 12 199 0.0 0.0 0.00 0.00 0.00 78 1015.0
20260506175818 12 199 0.0 0.0 0.00 0.00 0.00 78 1015.0
20260506175721 12 199 0.0 0.0 0.00 0.00 0.00 78 1015.0
20260506175618 12 199 0.0 0.0 0.00 0.00 0.00 78 1015.0
20260506175521 12 199 0.0 0.0 0.00 0.00 0.00 78 1015.0
20260506175414 12 199 0.0 0.0 0.00 0.00 0.00 77 1015.0
20260506175313 12 199 0.0 0.0 0.00 0.00 0.00 77 1014.9
20260506175222 12 199 0.0 0.0 0.00 0.00 0.00 77 1015.0
20260506175114 12 199 0.0 0.0 0.00 0.00 0.00 77 1015.0
20260506175017 12 199 0.0 0.0 0.00 0.00 0.00 76 1014.9
20260506174916 12 199 0.0 0.0 0.00 0.00 0.00 76 1014.9
20260506174813 12 199 0.0 0.0 0.00 0.00 0.00 76 1014.9
20260506174718 12 199 0.0 0.0 0.00 0.00 0.00 76 1014.9
20260506174616 12 199 0.0 0.0 0.00 0.00 0.00 76 1014.9
20260506174515 12 199 0.0 0.0 0.00 0.00 0.00 76 1014.9
20260506174414 12 199 0.0 0.0 0.00 0.00 0.00 76 1014.9
20260506174317 12 199 0.0 0.0 0.00 0.00 0.00 76 1014.9
20260506174213 12 199 0.0 0.0 0.00 0.00 0.00 76 1014.8
20260506174109 12 199 0.0 0.0 0.00 0.00 0.00 76 1014.8
20260506174009 12 199 0.0 0.0 0.00 0.00 0.00 76 1014.8
20260506173906 12 199 0.0 0.0 0.00 0.00 0.00 77 1014.8
20260506173809 12 199 0.0 0.0 0.00 0.00 0.00 76 1014.8
20260506173719 12 199 0.0 0.0 0.00 0.00 0.00 76 1014.8